STARLINK-1489 (45776 NORAD) Tracking and Keplerian Element Data

This shows tracking and keplerian element data for the satellite.

Feedback or suggestion? Click here.




ElementValue
Catalog45776
NameSTARLINK-1489
Epoch Orbit177
Epoch Day218.91667824
Epoch Year2020
RAAN33.903
Inclination53.0005
Eccentricity0.0001792
Argument of Perigee38.4844
Mean Anonmoly161.4284
Mean Motion15.62706543
Decay Rate0.00068144
L11 45776U 20038AY 20218.91667824 .00068144 00000-0 74513-3 0 9994
L22 45776 53.0005 33.9030 0001792 38.4844 161.4284 15.62706543 1772

Live tracking and technical data element details for STARLINK-1489 (NORAD 45776). STARLINK-1489 can be tracked NOW for your location showing map with azimuth and elevation plus other details from your city location.

Track the satellite on the map from your city or location and see movement details for azimuth, elevation, latitude, longitude, range, height, and movement on the map or in text.







IsCatalogInMostPopularTable: catalog: 45776, numindb: 13
Update: records affected: 1



GetName: 45776 STARLINK-1489

Hit Count: updated at: Sat, 08 Aug 2020 00:03:15 GMT